Home > Weather > Lierbyen > Past weeks

Flag for Norway Past Weather in Lierbyen, Norway — Yesterday and Last 2 Weeks

Now
54 °F

Broken clouds.


Feels Like: 47 °F
Forecast: 51 / 70 °F
Wind: 25 mph from West

Location: Statfjord B

Current Time: Jun 27, 2016 at 5:08:14 PM

Latest Report: Jun 27, 2016 at 4:20 PM


Visibility: N/A

Pressure: 29.62 "Hg

Humidity: 88%

Dew Point: 50 °F

Location of LierbyenLocation

Past Weather in Lierbyen — Graph

°F

Lierbyen Temperature Yesterday

Maximum temperature yesterday: 52 °F (at 12:20 AM)
Minimum temperature yesterday: 50 °F (at 2:50 AM)
Average temperature yesterday: 51 °F

High & Low Weather Summary for the Past Weeks

 TemperatureHumidityPressure
High59 °F (Jun 12, 7:50 PM)100% (Jun 20, 11:50 AM)30.09 "Hg (Jun 20, 11:50 AM)
Low46 °F (Jun 18, 12:20 PM)51% (Jun 19, 7:20 PM)29.47 "Hg (Jun 20, 3:50 PM)
Average52 °F86%29.85 "Hg
* Reported Jun 12 3:20 PM — Jun 27 3:50 PM, Lierbyen, Weather by CustomWeather, © 2016

Note: Actual official high and low records may vary slightly from our data, if they occured in-between our weather recording intervals... More about our weather records

Advertising

Lierbyen Weather History for the Previous 24 Hours

Scroll right to see more
 ConditionsComfort  
Time TempWeatherWind HumidityBarometerVisibility
3:50 PM
Mon, Jun 27
54 °FPassing clouds.25 mph88%29.62 "HgN/A
3:20 PM52 °FLight rain. Partly sunny.25 mph94%29.59 "HgN/A
2:50 PM52 °FLight rain. Partly sunny.22 mph100%29.59 "HgN/A
2:20 PM52 °FLight rain. Partly sunny.21 mph100%29.59 "HgN/A
1:50 PM52 °FLight rain. Partly sunny.20 mph100%29.59 "HgN/A
1:20 PM52 °FLight rain. Partly sunny.17 mph100%29.59 "HgN/A
12:50 PM52 °FLight rain. Broken clouds.13 mph100%29.59 "HgN/A
12:20 PM52 °FLight rain. Partly sunny.15 mph100%29.59 "HgN/A
11:50 AM52 °FLight rain. Partly sunny.15 mph100%29.59 "HgN/A
11:20 AM54 °FLight rain. Partly sunny.21 mph94%29.59 "Hg3 mi
10:50 AM54 °FPartly sunny.23 mph94%29.59 "HgN/A
10:20 AM54 °FOvercast.24 mph94%29.59 "HgN/A
9:50 AM54 °FPartly sunny.22 mph94%29.59 "HgN/A
9:20 AM54 °FPartly sunny.24 mph94%29.59 "HgN/A
8:50 AM54 °FPartly sunny.20 mph94%29.59 "HgN/A
8:20 AM54 °FPartly sunny.18 mph94%29.59 "HgN/A
7:50 AM54 °FPartly sunny.15 mph94%29.59 "HgN/A
7:20 AM54 °FOvercast.16 mph94%29.62 "HgN/A
6:50 AM52 °FLow clouds.14 mph94%29.62 "HgN/A
6:20 AM52 °FLow clouds.10 mph94%29.62 "HgN/A
5:50 AM52 °FMostly cloudy.13 mph94%29.62 "HgN/A
5:20 AM52 °FBroken clouds.13 mph88%29.62 "HgN/A
4:50 AM50 °FPassing clouds.13 mph94%29.62 "HgN/A
4:20 AM50 °FOvercast.16 mph94%29.62 "HgN/A
3:50 AM50 °FPassing clouds.20 mph94%29.62 "HgN/A
3:20 AM50 °FPassing clouds.17 mph94%29.65 "HgN/A
2:50 AM52 °FPassing clouds.12 mph88%29.65 "HgN/A
2:20 AM52 °FSprinkles. Low clouds.12 mph88%29.65 "HgN/A
1:50 AM52 °FRain. Low clouds.8 mph94%29.68 "HgN/A
1:20 AM52 °FLow clouds.8 mph94%29.68 "HgN/A
12:50 AM52 °FLow clouds.10 mph94%29.68 "HgN/A
12:20 AM52 °FLow clouds.8 mph94%29.68 "HgN/A
11:50 PM
Sun, Jun 26
52 °FSprinkles. Low clouds.13 mph94%29.65 "HgN/A
11:20 PM52 °FLow clouds.12 mph94%29.65 "HgN/A
10:50 PM52 °FLow clouds.14 mph94%29.65 "HgN/A
10:20 PM52 °FLow clouds.13 mph94%29.68 "HgN/A
9:50 PM52 °FLow clouds.16 mph94%29.68 "HgN/A
9:20 PM52 °FLow clouds.14 mph94%29.68 "HgN/A
8:50 PM52 °FLow clouds.15 mph94%29.68 "HgN/A
8:20 PM52 °FLow clouds.15 mph94%29.68 "HgN/A
7:50 PM52 °FLow clouds.15 mph94%29.68 "HgN/A
7:20 PM52 °FPartly sunny.16 mph94%29.68 "HgN/A
6:50 PM50 °FLow clouds.17 mph100%29.68 "HgN/A
6:20 PM52 °FLow clouds.17 mph94%29.71 "HgN/A
5:50 PM52 °FLow clouds.16 mph94%29.71 "HgN/A
5:20 PM50 °FLow clouds.16 mph100%29.74 "HgN/A
Weather by CustomWeather, © 2016

See weather overviewHow to use our weather pages